Location: Bagnolo San Vito
(45.0833°N, 10.8833°E)
Time: 23:35:57
(UTC+00:00)

Cosmos 1500 - Pass Details

Date: 03 March 2021
Orbit: 499 x 517 km, 82.5° (Epoch: 17 April)

Event Time Altitude Azimuth Distance (km) Brightness Sun altitude
Rises 18:46:49 0° 202° (SSW) 2,579 6.9 -18.4°
Reaches altitude 10° 18:48:59 10° 209° (SSW) 1,700 6.0 -18.8°
Maximum altitude 18:52:33 44° 282° (WNW) 700 4.3 -19.4°
Drops below altitude 10° 18:56:10 10° 356° (N) 1,714 6.0 -20.0°
Sets 18:58:22 0° 3° (N) 2,604 6.9 -20.4°
